Location: Chircca
(13.7944°S, 72.0608°W)
Time: 06:28:22
(UTC+00:00)

Cosmos 1544 Rocket - Pass Details

Date: 14 July 2020
Orbit: 605 x 630 km, 82.5° (Epoch: 14 August)

Event Time Altitude Azimuth Distance (km) Brightness Sun altitude
Rises 09:51:51 0° 177° (S) 2,873 6.8 -19.3°
Reaches altitude 10° 09:54:07 10° 172° (S) 1,965 6.0 -18.8°
Maximum altitude 09:58:21 52° 95° (E) 756 4.3 -17.8°
Drops below altitude 10° 10:02:34 10° 18° (NNE) 1,955 6.6 -16.8°
Sets 10:04:49 0° 13° (NNE) 2,856 7.4 -16.3°
